Погода в Симе

Россия / Челябинская область     54°59′26″N   57°41′23″E
темп.,
°C
ветер,
м/с
пор.,
м/с
влажн.,
%
обл.,
%
осадки,
мм/ч
давл.,
гПа
погр.,
м
9 марта, вт
вт923:00−6юз5129097 3.2 1005749
02:00−6зюз2896100 0.9 1004477
05:00−6ююв1597100 3.0 1003348
08:00−6зюз41195100 2.5 10031331
11:00−7зюз61191100 2.9 1006921
14:00−5зюз4687100 0.2 1008851
17:00−5зюз248598 0.3 1009675
20:00−11сз0094100 0.0 101021
10 марта, ср
ср1023:00−13в1195100 0.0 100920
02:00−11всв1295100 0.0 100724
05:00−11св2396100 0.4 1004132
08:00−11св2596100 0.8 1001266
11:00−8св2495100 2.9 998285
14:00−6ссв3696100 2.7 998391
17:00−6сз4995100 5.4 999665
20:00−10сз51094100 3.4 1001839
11 марта, чт
чт1123:00−12сз4895100 5.1 1004682
02:00−15сз3896100 0.7 1006613
05:00−18зсз3796100 1.1 1009394
08:00−19з2598100 0.4 1012392
11:00−18з3693100 0.7 1014463
14:00−17з579298 0.0 1015578
17:00−18зюз599399 0.1 1016621
20:00−20зюз51195100 0.1 1018597
12 марта, пт
пт1223:00−21зюз41196100 0.3 1019375
02:00−19зюз51294100 0.2 1019477
05:00−20зюз31295100 0.3 1020351
08:00−20зюз31096100 0.1 1022332
11:00−15зюз41093100 0.1 1022469
14:00−12зюз61090100 0.1 1023791
17:00−11з5990100 0.2 1024717
20:00−13зюз41194100 0.1 1026516
13 марта, сб
сб1323:00−15зюз31095100 0.1 1029354
02:00−18зюз2797100 0.1 1030177
05:00−20юз2398100 0.1 103170
08:00−20зюз2498100 0.0 1033133
11:00−14зюз269498 0.1 1033350
14:00−11з369197 0.0 1033444
17:00−10з359098 0.0 1033424
20:00−15зюз129798 0.0 103320